#datetime,building,power
2023-03-03T00:00:00,thc,14.41
2023-03-03T00:01:00,thc,14.40
2023-03-03T00:02:00,thc,14.29
2023-03-03T00:03:00,thc,14.25
2023-03-03T00:04:00,thc,14.27
2023-03-03T00:05:00,thc,9.09
2023-03-03T00:06:00,thc,13.26
2023-03-03T00:07:00,thc,13.34
2023-03-03T00:08:00,thc,11.69
2023-03-03T00:09:00,thc,12.77
2023-03-03T00:10:00,thc,10.85
2023-03-03T00:11:00,thc,12.29
2023-03-03T00:12:00,thc,11.07
2023-03-03T00:13:00,thc,13.94
2023-03-03T00:14:00,thc,15.36
2023-03-03T00:15:00,thc,12.19
2023-03-03T00:16:00,thc,12.40
2023-03-03T00:17:00,thc,10.47
2023-03-03T00:18:00,thc,5.58
2023-03-03T00:19:00,thc,9.71
2023-03-03T00:20:00,thc,9.62
2023-03-03T00:21:00,thc,9.60
2023-03-03T00:22:00,thc,9.66
2023-03-03T00:23:00,thc,9.53
2023-03-03T00:24:00,thc,9.64
2023-03-03T00:25:00,thc,9.95
2023-03-03T00:26:00,thc,9.90
2023-03-03T00:27:00,thc,11.23
2023-03-03T00:28:00,thc,11.22
2023-03-03T00:29:00,thc,12.71
2023-03-03T00:30:00,thc,8.62
2023-03-03T00:31:00,thc,12.82
2023-03-03T00:32:00,thc,12.42
2023-03-03T00:33:00,thc,12.05
2023-03-03T00:34:00,thc,10.99
2023-03-03T00:35:00,thc,11.14
2023-03-03T00:36:00,thc,6.76
2023-03-03T00:37:00,thc,9.77
2023-03-03T00:38:00,thc,11.22
2023-03-03T00:39:00,thc,9.80
2023-03-03T00:40:00,thc,11.12
2023-03-03T00:41:00,thc,5.49
2023-03-03T00:42:00,thc,9.41
2023-03-03T00:43:00,thc,10.93
2023-03-03T00:44:00,thc,9.33
2023-03-03T00:45:00,thc,9.41
2023-03-03T00:46:00,thc,6.27
2023-03-03T00:47:00,thc,10.38
2023-03-03T00:48:00,thc,6.41
2023-03-03T00:49:00,thc,6.45
2023-03-03T00:50:00,thc,6.36
2023-03-03T00:51:00,thc,4.84
2023-03-03T00:52:00,thc,4.73
2023-03-03T00:53:00,thc,4.78
2023-03-03T00:54:00,thc,4.76
2023-03-03T00:55:00,thc,4.74
2023-03-03T00:56:00,thc,5.03
2023-03-03T00:57:00,thc,4.81
2023-03-03T00:58:00,thc,4.74
2023-03-03T00:59:00,thc,4.84
2023-03-03T01:00:00,thc,4.92
2023-03-03T01:01:00,thc,4.98
2023-03-03T01:02:00,thc,4.95
2023-03-03T01:03:00,thc,4.98
2023-03-03T01:04:00,thc,5.69
2023-03-03T01:05:00,thc,4.95
2023-03-03T01:06:00,thc,5.99
2023-03-03T01:07:00,thc,6.19
2023-03-03T01:08:00,thc,6.16
2023-03-03T01:09:00,thc,6.17
2023-03-03T01:10:00,thc,6.20
2023-03-03T01:11:00,thc,12.56
2023-03-03T01:12:00,thc,11.63
2023-03-03T01:13:00,thc,15.96
2023-03-03T01:14:00,thc,16.00
2023-03-03T01:15:00,thc,11.54
2023-03-03T01:16:00,thc,11.56
2023-03-03T01:17:00,thc,11.43
2023-03-03T01:18:00,thc,9.74
2023-03-03T01:19:00,thc,5.42
2023-03-03T01:20:00,thc,9.42
2023-03-03T01:21:00,thc,9.45
2023-03-03T01:22:00,thc,9.46
2023-03-03T01:23:00,thc,6.38
2023-03-03T01:24:00,thc,10.49
2023-03-03T01:25:00,thc,10.51
2023-03-03T01:26:00,thc,10.38
2023-03-03T01:27:00,thc,10.61
2023-03-03T01:28:00,thc,6.48
2023-03-03T01:29:00,thc,9.48
2023-03-03T01:30:00,thc,9.36
2023-03-03T01:31:00,thc,9.34
2023-03-03T01:32:00,thc,4.99
2023-03-03T01:33:00,thc,9.46
2023-03-03T01:34:00,thc,9.38
2023-03-03T01:35:00,thc,5.27
2023-03-03T01:36:00,thc,9.69
2023-03-03T01:37:00,thc,10.41
2023-03-03T01:38:00,thc,9.37
2023-03-03T01:39:00,thc,5.24
2023-03-03T01:40:00,thc,9.26
2023-03-03T01:41:00,thc,5.16
2023-03-03T01:42:00,thc,5.11
2023-03-03T01:43:00,thc,5.08
2023-03-03T01:44:00,thc,5.06
2023-03-03T01:45:00,thc,5.03
2023-03-03T01:46:00,thc,5.09
2023-03-03T01:47:00,thc,5.12
2023-03-03T01:48:00,thc,9.19
2023-03-03T01:49:00,thc,9.09
2023-03-03T01:50:00,thc,9.13
2023-03-03T01:51:00,thc,9.09
2023-03-03T01:52:00,thc,9.18
2023-03-03T01:53:00,thc,5.01
2023-03-03T01:54:00,thc,4.93
2023-03-03T01:55:00,thc,4.88
2023-03-03T01:56:00,thc,4.82
2023-03-03T01:57:00,thc,4.81
2023-03-03T01:58:00,thc,5.03
2023-03-03T01:59:00,thc,5.91
2023-03-03T02:00:00,thc,5.91
2023-03-03T02:01:00,thc,5.92
2023-03-03T02:02:00,thc,6.86
2023-03-03T02:03:00,thc,11.02
2023-03-03T02:04:00,thc,11.30
2023-03-03T02:05:00,thc,12.06
2023-03-03T02:06:00,thc,11.48
2023-03-03T02:07:00,thc,7.33
2023-03-03T02:08:00,thc,8.13
2023-03-03T02:09:00,thc,7.03
2023-03-03T02:10:00,thc,7.50
2023-03-03T02:11:00,thc,6.52
2023-03-03T02:12:00,thc,5.39
2023-03-03T02:13:00,thc,5.16
2023-03-03T02:14:00,thc,4.45
2023-03-03T02:15:00,thc,4.43
2023-03-03T02:16:00,thc,4.41
2023-03-03T02:17:00,thc,4.62
2023-03-03T02:18:00,thc,4.37
2023-03-03T02:19:00,thc,4.42
2023-03-03T02:20:00,thc,4.42
2023-03-03T02:21:00,thc,4.50
2023-03-03T02:22:00,thc,4.64
2023-03-03T02:23:00,thc,4.56
2023-03-03T02:24:00,thc,4.58
2023-03-03T02:25:00,thc,4.61
2023-03-03T02:26:00,thc,4.61
2023-03-03T02:27:00,thc,4.64
2023-03-03T02:28:00,thc,4.59
2023-03-03T02:29:00,thc,4.63
2023-03-03T02:30:00,thc,4.60
2023-03-03T02:31:00,thc,4.55
2023-03-03T02:32:00,thc,4.49
2023-03-03T02:33:00,thc,4.71
2023-03-03T02:34:00,thc,4.66
2023-03-03T02:35:00,thc,4.66
2023-03-03T02:36:00,thc,4.49
2023-03-03T02:37:00,thc,4.69
2023-03-03T02:38:00,thc,4.75
2023-03-03T02:39:00,thc,4.79
2023-03-03T02:40:00,thc,4.44
2023-03-03T02:41:00,thc,4.41
2023-03-03T02:42:00,thc,4.17
2023-03-03T02:43:00,thc,4.07
2023-03-03T02:44:00,thc,4.07
2023-03-03T02:45:00,thc,4.07
2023-03-03T02:46:00,thc,5.25
2023-03-03T02:47:00,thc,5.33
2023-03-03T02:48:00,thc,6.21
2023-03-03T02:49:00,thc,7.12
2023-03-03T02:50:00,thc,7.06
2023-03-03T02:51:00,thc,5.96
2023-03-03T02:52:00,thc,5.96
2023-03-03T02:53:00,thc,5.96
2023-03-03T02:54:00,thc,5.95
2023-03-03T02:55:00,thc,4.97
2023-03-03T02:56:00,thc,4.14
2023-03-03T02:57:00,thc,5.49
2023-03-03T02:58:00,thc,5.25
2023-03-03T02:59:00,thc,5.22
2023-03-03T03:00:00,thc,5.25
2023-03-03T03:01:00,thc,5.17
2023-03-03T03:02:00,thc,5.18
2023-03-03T03:03:00,thc,4.18
2023-03-03T03:04:00,thc,4.17
2023-03-03T03:05:00,thc,4.17
2023-03-03T03:06:00,thc,4.18
2023-03-03T03:07:00,thc,4.17
2023-03-03T03:08:00,thc,4.15
2023-03-03T03:09:00,thc,4.14
2023-03-03T03:10:00,thc,4.14
2023-03-03T03:11:00,thc,4.12
2023-03-03T03:12:00,thc,4.12
2023-03-03T03:13:00,thc,4.12
2023-03-03T03:14:00,thc,4.12
2023-03-03T03:15:00,thc,4.12
2023-03-03T03:16:00,thc,4.13
2023-03-03T03:17:00,thc,4.14
2023-03-03T03:18:00,thc,4.07
2023-03-03T03:19:00,thc,4.28
2023-03-03T03:20:00,thc,4.08
2023-03-03T03:21:00,thc,4.28
2023-03-03T03:22:00,thc,4.22
2023-03-03T03:23:00,thc,4.18
2023-03-03T03:24:00,thc,5.27
2023-03-03T03:25:00,thc,5.26
2023-03-03T03:26:00,thc,5.40
2023-03-03T03:27:00,thc,5.65
2023-03-03T03:28:00,thc,7.08
2023-03-03T03:29:00,thc,6.46
2023-03-03T03:30:00,thc,5.33
2023-03-03T03:31:00,thc,5.34
2023-03-03T03:32:00,thc,5.15
2023-03-03T03:33:00,thc,5.12
2023-03-03T03:34:00,thc,5.13
2023-03-03T03:35:00,thc,4.18
2023-03-03T03:36:00,thc,4.18
2023-03-03T03:37:00,thc,4.32
2023-03-03T03:38:00,thc,4.56
2023-03-03T03:39:00,thc,4.41
2023-03-03T03:40:00,thc,4.34
2023-03-03T03:41:00,thc,4.35
2023-03-03T03:42:00,thc,5.40
2023-03-03T03:43:00,thc,5.42
2023-03-03T03:44:00,thc,5.37
2023-03-03T03:45:00,thc,5.31
2023-03-03T03:46:00,thc,6.15
2023-03-03T03:47:00,thc,6.16
2023-03-03T03:48:00,thc,6.11
2023-03-03T03:49:00,thc,5.91
2023-03-03T03:50:00,thc,5.04
2023-03-03T03:51:00,thc,5.07
2023-03-03T03:52:00,thc,5.00
2023-03-03T03:53:00,thc,4.18
2023-03-03T03:54:00,thc,4.14
2023-03-03T03:55:00,thc,4.09
2023-03-03T03:56:00,thc,4.07
2023-03-03T03:57:00,thc,4.03
2023-03-03T03:58:00,thc,3.92
2023-03-03T03:59:00,thc,4.14
2023-03-03T04:00:00,thc,4.13
2023-03-03T04:01:00,thc,3.92
2023-03-03T04:02:00,thc,3.93
2023-03-03T04:03:00,thc,3.92
2023-03-03T04:04:00,thc,5.08
2023-03-03T04:05:00,thc,5.29
2023-03-03T04:06:00,thc,5.29
2023-03-03T04:07:00,thc,5.30
2023-03-03T04:08:00,thc,5.29
2023-03-03T04:09:00,thc,5.03
2023-03-03T04:10:00,thc,4.19
2023-03-03T04:11:00,thc,4.20
2023-03-03T04:12:00,thc,4.02
2023-03-03T04:13:00,thc,4.00
2023-03-03T04:14:00,thc,5.07
2023-03-03T04:15:00,thc,4.98
2023-03-03T04:16:00,thc,4.96
2023-03-03T04:17:00,thc,5.81
2023-03-03T04:18:00,thc,5.80
2023-03-03T04:19:00,thc,5.79
2023-03-03T04:20:00,thc,6.07
2023-03-03T04:21:00,thc,6.08
2023-03-03T04:22:00,thc,6.03
2023-03-03T04:23:00,thc,6.02
2023-03-03T04:24:00,thc,5.20
2023-03-03T04:25:00,thc,5.19
2023-03-03T04:26:00,thc,6.37
2023-03-03T04:27:00,thc,4.93
2023-03-03T04:28:00,thc,4.88
2023-03-03T04:29:00,thc,4.83
2023-03-03T04:30:00,thc,4.90
2023-03-03T04:31:00,thc,4.04
2023-03-03T04:32:00,thc,4.00
2023-03-03T04:33:00,thc,4.05
2023-03-03T04:34:00,thc,4.01
2023-03-03T04:35:00,thc,3.99
2023-03-03T04:36:00,thc,3.97
2023-03-03T04:37:00,thc,3.95
2023-03-03T04:38:00,thc,3.99
2023-03-03T04:39:00,thc,3.95
2023-03-03T04:40:00,thc,4.16
2023-03-03T04:41:00,thc,4.21
2023-03-03T04:42:00,thc,4.05
2023-03-03T04:43:00,thc,4.08
2023-03-03T04:44:00,thc,4.10
2023-03-03T04:45:00,thc,4.30
2023-03-03T04:46:00,thc,4.28
2023-03-03T04:47:00,thc,4.28
2023-03-03T04:48:00,thc,4.34
2023-03-03T04:49:00,thc,4.33
2023-03-03T04:50:00,thc,5.15
2023-03-03T04:51:00,thc,4.33
2023-03-03T04:52:00,thc,5.36
2023-03-03T04:53:00,thc,6.33
2023-03-03T04:54:00,thc,7.64
2023-03-03T04:55:00,thc,7.59
2023-03-03T04:56:00,thc,7.60
2023-03-03T04:57:00,thc,7.45
2023-03-03T04:58:00,thc,6.32
2023-03-03T04:59:00,thc,5.32
2023-03-03T05:00:00,thc,6.20
2023-03-03T05:01:00,thc,5.12
2023-03-03T05:02:00,thc,5.11
2023-03-03T05:03:00,thc,5.10
2023-03-03T05:04:00,thc,5.07
2023-03-03T05:05:00,thc,4.26
2023-03-03T05:06:00,thc,5.23
2023-03-03T05:07:00,thc,5.22
2023-03-03T05:08:00,thc,5.14
2023-03-03T05:09:00,thc,5.05
2023-03-03T05:10:00,thc,4.89
2023-03-03T05:11:00,thc,4.99
2023-03-03T05:12:00,thc,4.98
2023-03-03T05:13:00,thc,4.05
2023-03-03T05:14:00,thc,4.00
2023-03-03T05:15:00,thc,4.11
2023-03-03T05:16:00,thc,4.07
2023-03-03T05:17:00,thc,4.05
2023-03-03T05:18:00,thc,3.95
2023-03-03T05:19:00,thc,4.05
2023-03-03T05:20:00,thc,4.27
2023-03-03T05:21:00,thc,4.16
2023-03-03T05:22:00,thc,4.04
2023-03-03T05:23:00,thc,4.10
2023-03-03T05:24:00,thc,4.00
2023-03-03T05:25:00,thc,4.04
2023-03-03T05:26:00,thc,4.01
2023-03-03T05:27:00,thc,4.04
2023-03-03T05:28:00,thc,5.36
2023-03-03T05:29:00,thc,5.42
2023-03-03T05:30:00,thc,5.32
2023-03-03T05:31:00,thc,5.41
2023-03-03T05:32:00,thc,5.29
2023-03-03T05:33:00,thc,6.27
2023-03-03T05:34:00,thc,7.44
2023-03-03T05:35:00,thc,6.08
2023-03-03T05:36:00,thc,6.17
2023-03-03T05:37:00,thc,6.16
2023-03-03T05:38:00,thc,6.93
2023-03-03T05:39:00,thc,4.95
2023-03-03T05:40:00,thc,4.90
2023-03-03T05:41:00,thc,4.83
2023-03-03T05:42:00,thc,5.00
2023-03-03T05:43:00,thc,4.79
2023-03-03T05:44:00,thc,4.13
2023-03-03T05:45:00,thc,4.19
2023-03-03T05:46:00,thc,4.11
2023-03-03T05:47:00,thc,4.14
2023-03-03T05:48:00,thc,4.05
2023-03-03T05:49:00,thc,4.20
2023-03-03T05:50:00,thc,4.18
2023-03-03T05:51:00,thc,4.05
2023-03-03T05:52:00,thc,4.16
2023-03-03T05:53:00,thc,4.04
2023-03-03T05:54:00,thc,4.11
2023-03-03T05:55:00,thc,4.09
2023-03-03T05:56:00,thc,4.11
2023-03-03T05:57:00,thc,4.21
2023-03-03T05:58:00,thc,4.18
2023-03-03T05:59:00,thc,4.03
2023-03-03T06:00:00,thc,5.29
2023-03-03T06:01:00,thc,6.37
2023-03-03T06:02:00,thc,7.15
2023-03-03T06:03:00,thc,7.09
2023-03-03T06:04:00,thc,7.07
2023-03-03T06:05:00,thc,6.97
2023-03-03T06:06:00,thc,7.10
2023-03-03T06:07:00,thc,6.23
2023-03-03T06:08:00,thc,5.35
2023-03-03T06:09:00,thc,4.34
2023-03-03T06:10:00,thc,4.39
2023-03-03T06:11:00,thc,5.93
2023-03-03T06:12:00,thc,5.25
2023-03-03T06:13:00,thc,5.16
2023-03-03T06:14:00,thc,5.08
2023-03-03T06:15:00,thc,4.97
2023-03-03T06:16:00,thc,5.19
2023-03-03T06:17:00,thc,6.08
2023-03-03T06:18:00,thc,4.42
2023-03-03T06:19:00,thc,5.48
2023-03-03T06:20:00,thc,5.62
2023-03-03T06:21:00,thc,5.52
2023-03-03T06:22:00,thc,5.41
2023-03-03T06:23:00,thc,5.50
2023-03-03T06:24:00,thc,5.28
2023-03-03T06:25:00,thc,4.27
2023-03-03T06:26:00,thc,4.12
2023-03-03T06:27:00,thc,4.02
2023-03-03T06:28:00,thc,4.04
2023-03-03T06:29:00,thc,4.06
2023-03-03T06:30:00,thc,3.96
2023-03-03T06:31:00,thc,4.03
2023-03-03T06:32:00,thc,3.91
2023-03-03T06:33:00,thc,4.01
2023-03-03T06:34:00,thc,4.00
2023-03-03T06:35:00,thc,3.98
2023-03-03T06:36:00,thc,4.07
2023-03-03T06:37:00,thc,4.07
2023-03-03T06:38:00,thc,5.01
2023-03-03T06:39:00,thc,5.28
2023-03-03T06:40:00,thc,5.31
2023-03-03T06:41:00,thc,5.43
2023-03-03T06:42:00,thc,6.44
2023-03-03T06:43:00,thc,7.60
2023-03-03T06:44:00,thc,7.05
2023-03-03T06:45:00,thc,6.04
2023-03-03T06:46:00,thc,6.04
2023-03-03T06:47:00,thc,6.17
2023-03-03T06:48:00,thc,6.08
2023-03-03T06:49:00,thc,4.48
2023-03-03T06:50:00,thc,4.56
2023-03-03T06:51:00,thc,4.42
2023-03-03T06:52:00,thc,5.46
2023-03-03T06:53:00,thc,6.09
2023-03-03T06:54:00,thc,5.39
2023-03-03T06:55:00,thc,5.27
2023-03-03T06:56:00,thc,5.19
2023-03-03T06:57:00,thc,5.41
2023-03-03T06:58:00,thc,5.17
2023-03-03T06:59:00,thc,4.42
2023-03-03T07:00:00,thc,4.54
2023-03-03T07:01:00,thc,4.40
2023-03-03T07:02:00,thc,4.33
2023-03-03T07:03:00,thc,5.48
2023-03-03T07:04:00,thc,5.53
2023-03-03T07:05:00,thc,5.55
2023-03-03T07:06:00,thc,5.47
2023-03-03T07:07:00,thc,5.58
2023-03-03T07:08:00,thc,4.37
2023-03-03T07:09:00,thc,4.31
2023-03-03T07:10:00,thc,4.18
2023-03-03T07:11:00,thc,4.11
2023-03-03T07:12:00,thc,4.08
2023-03-03T07:13:00,thc,4.14
2023-03-03T07:14:00,thc,5.07
2023-03-03T07:15:00,thc,5.13
2023-03-03T07:16:00,thc,5.23
2023-03-03T07:17:00,thc,6.02
2023-03-03T07:18:00,thc,6.08
2023-03-03T07:19:00,thc,5.95
2023-03-03T07:20:00,thc,5.81
2023-03-03T07:21:00,thc,5.08
2023-03-03T07:22:00,thc,5.23
2023-03-03T07:23:00,thc,5.31
2023-03-03T07:24:00,thc,4.17
2023-03-03T07:25:00,thc,4.11
2023-03-03T07:26:00,thc,4.28
2023-03-03T07:27:00,thc,4.59
2023-03-03T07:28:00,thc,4.47
2023-03-03T07:29:00,thc,4.50
2023-03-03T07:30:00,thc,5.00
2023-03-03T07:31:00,thc,4.88
2023-03-03T07:32:00,thc,4.91
2023-03-03T07:33:00,thc,4.61
2023-03-03T07:34:00,thc,4.89
2023-03-03T07:35:00,thc,4.64
2023-03-03T07:36:00,thc,4.49
2023-03-03T07:37:00,thc,3.60
2023-03-03T07:38:00,thc,3.54
2023-03-03T07:39:00,thc,4.19
2023-03-03T07:40:00,thc,4.27
2023-03-03T07:41:00,thc,4.27
2023-03-03T07:42:00,thc,4.14
2023-03-03T07:43:00,thc,4.29
2023-03-03T07:44:00,thc,5.27
2023-03-03T07:45:00,thc,6.51
2023-03-03T07:46:00,thc,6.13
2023-03-03T07:47:00,thc,5.63
2023-03-03T07:48:00,thc,5.51
2023-03-03T07:49:00,thc,4.46
2023-03-03T07:50:00,thc,5.36
2023-03-03T07:51:00,thc,5.23
2023-03-03T07:52:00,thc,4.50
2023-03-03T07:53:00,thc,4.39
2023-03-03T07:54:00,thc,4.50
2023-03-03T07:55:00,thc,4.43
2023-03-03T07:56:00,thc,4.50
2023-03-03T07:57:00,thc,3.49
2023-03-03T07:58:00,thc,3.61
2023-03-03T07:59:00,thc,3.51
2023-03-03T08:00:00,thc,3.56
2023-03-03T08:01:00,thc,3.56
2023-03-03T08:02:00,thc,3.67
2023-03-03T08:03:00,thc,3.76
2023-03-03T08:04:00,thc,3.51
2023-03-03T08:05:00,thc,3.62
2023-03-03T08:06:00,thc,3.82
2023-03-03T08:07:00,thc,3.83
2023-03-03T08:08:00,thc,3.89
2023-03-03T08:09:00,thc,3.82
2023-03-03T08:10:00,thc,3.89
2023-03-03T08:11:00,thc,3.77
2023-03-03T08:12:00,thc,3.53
2023-03-03T08:13:00,thc,3.73
2023-03-03T08:14:00,thc,3.62
2023-03-03T08:15:00,thc,6.07
2023-03-03T08:16:00,thc,6.13
2023-03-03T08:17:00,thc,6.09
2023-03-03T08:18:00,thc,6.23
2023-03-03T08:19:00,thc,6.13
2023-03-03T08:20:00,thc,4.89
2023-03-03T08:21:00,thc,3.84
2023-03-03T08:22:00,thc,5.08
2023-03-03T08:23:00,thc,5.02
2023-03-03T08:24:00,thc,4.87
2023-03-03T08:25:00,thc,4.90
2023-03-03T08:26:00,thc,4.98
2023-03-03T08:27:00,thc,4.92
2023-03-03T08:28:00,thc,4.75
2023-03-03T08:29:00,thc,3.96
2023-03-03T08:30:00,thc,4.07
2023-03-03T08:31:00,thc,3.92
2023-03-03T08:32:00,thc,3.79
2023-03-03T08:33:00,thc,4.01
2023-03-03T08:34:00,thc,3.89
2023-03-03T08:35:00,thc,4.02
2023-03-03T08:36:00,thc,4.03
2023-03-03T08:37:00,thc,4.15
2023-03-03T08:38:00,thc,4.11
2023-03-03T08:39:00,thc,4.07
2023-03-03T08:40:00,thc,3.98
2023-03-03T08:41:00,thc,5.02
2023-03-03T08:42:00,thc,5.02
2023-03-03T08:43:00,thc,4.67
2023-03-03T08:44:00,thc,4.69
2023-03-03T08:45:00,thc,6.06
2023-03-03T08:46:00,thc,4.66
2023-03-03T08:47:00,thc,4.57
2023-03-03T08:48:00,thc,3.72
2023-03-03T08:49:00,thc,4.80
2023-03-03T08:50:00,thc,4.82
2023-03-03T08:51:00,thc,4.96
2023-03-03T08:52:00,thc,4.93
2023-03-03T08:53:00,thc,4.90
2023-03-03T08:54:00,thc,4.84
2023-03-03T08:55:00,thc,4.77
2023-03-03T08:56:00,thc,3.89
2023-03-03T08:57:00,thc,3.87
2023-03-03T08:58:00,thc,3.82
2023-03-03T08:59:00,thc,3.84
2023-03-03T09:00:00,thc,3.94
2023-03-03T09:01:00,thc,3.79
2023-03-03T09:02:00,thc,3.93
2023-03-03T09:03:00,thc,3.86
2023-03-03T09:04:00,thc,3.83
2023-03-03T09:05:00,thc,3.77
2023-03-03T09:06:00,thc,3.94
2023-03-03T09:07:00,thc,4.83
2023-03-03T09:08:00,thc,5.97
2023-03-03T09:09:00,thc,6.15
2023-03-03T09:10:00,thc,5.97
2023-03-03T09:11:00,thc,6.09
2023-03-03T09:12:00,thc,6.48
2023-03-03T09:13:00,thc,6.96
2023-03-03T09:14:00,thc,5.07
2023-03-03T09:15:00,thc,4.92
2023-03-03T09:16:00,thc,5.04
2023-03-03T09:17:00,thc,5.25
2023-03-03T09:18:00,thc,5.20
2023-03-03T09:19:00,thc,4.29
2023-03-03T09:20:00,thc,4.35
2023-03-03T09:21:00,thc,4.33
2023-03-03T09:22:00,thc,4.23
2023-03-03T09:23:00,thc,5.42
2023-03-03T09:24:00,thc,5.54
2023-03-03T09:25:00,thc,5.30
2023-03-03T09:26:00,thc,5.44
2023-03-03T09:27:00,thc,5.18
2023-03-03T09:28:00,thc,4.97
2023-03-03T09:29:00,thc,5.16
2023-03-03T09:30:00,thc,4.32
2023-03-03T09:31:00,thc,5.45
2023-03-03T09:32:00,thc,5.27
2023-03-03T09:33:00,thc,5.22
2023-03-03T09:34:00,thc,5.26
2023-03-03T09:35:00,thc,5.17
2023-03-03T09:36:00,thc,5.09
2023-03-03T09:37:00,thc,5.09
2023-03-03T09:38:00,thc,3.98
2023-03-03T09:39:00,thc,4.03
2023-03-03T09:40:00,thc,4.05
2023-03-03T09:41:00,thc,3.96
2023-03-03T09:42:00,thc,4.32
2023-03-03T09:43:00,thc,4.28
2023-03-03T09:44:00,thc,4.25
2023-03-03T09:45:00,thc,4.29
2023-03-03T09:46:00,thc,4.22
2023-03-03T09:47:00,thc,3.78
2023-03-03T09:48:00,thc,4.13
2023-03-03T09:49:00,thc,4.36
2023-03-03T09:50:00,thc,5.42
2023-03-03T09:51:00,thc,5.37
2023-03-03T09:52:00,thc,5.53
2023-03-03T09:53:00,thc,5.10
2023-03-03T09:54:00,thc,5.59
2023-03-03T09:55:00,thc,5.23
2023-03-03T09:56:00,thc,5.19
2023-03-03T09:57:00,thc,4.14
2023-03-03T09:58:00,thc,4.85
2023-03-03T09:59:00,thc,4.91
2023-03-03T10:00:00,thc,4.87
2023-03-03T10:01:00,thc,5.00
2023-03-03T10:02:00,thc,4.98
2023-03-03T10:03:00,thc,4.97
2023-03-03T10:04:00,thc,5.27
2023-03-03T10:05:00,thc,5.05
2023-03-03T10:06:00,thc,5.03
2023-03-03T10:07:00,thc,5.07
2023-03-03T10:08:00,thc,5.00
2023-03-03T10:09:00,thc,4.94
2023-03-03T10:10:00,thc,4.17
2023-03-03T10:11:00,thc,3.94
2023-03-03T10:12:00,thc,4.14
2023-03-03T10:13:00,thc,4.19
2023-03-03T10:14:00,thc,4.41
2023-03-03T10:15:00,thc,4.17
2023-03-03T10:16:00,thc,4.13
2023-03-03T10:17:00,thc,4.30
2023-03-03T10:18:00,thc,4.28
2023-03-03T10:19:00,thc,4.05
2023-03-03T10:20:00,thc,4.03
2023-03-03T10:21:00,thc,4.26
2023-03-03T10:22:00,thc,4.16
2023-03-03T10:23:00,thc,4.17
2023-03-03T10:24:00,thc,4.18
2023-03-03T10:25:00,thc,5.34
2023-03-03T10:26:00,thc,5.72
2023-03-03T10:27:00,thc,5.85
2023-03-03T10:28:00,thc,5.59
2023-03-03T10:29:00,thc,5.55
2023-03-03T10:30:00,thc,7.55
2023-03-03T10:31:00,thc,6.52
2023-03-03T10:32:00,thc,6.49
2023-03-03T10:33:00,thc,6.60
2023-03-03T10:34:00,thc,6.30
2023-03-03T10:35:00,thc,6.00
2023-03-03T10:36:00,thc,5.08
2023-03-03T10:37:00,thc,3.79
2023-03-03T10:38:00,thc,4.61
2023-03-03T10:39:00,thc,5.65
2023-03-03T10:40:00,thc,5.77
2023-03-03T10:41:00,thc,5.75
2023-03-03T10:42:00,thc,5.75
2023-03-03T10:43:00,thc,5.70
2023-03-03T10:44:00,thc,5.91
2023-03-03T10:45:00,thc,4.92
2023-03-03T10:46:00,thc,4.20
2023-03-03T10:47:00,thc,4.25
2023-03-03T10:48:00,thc,4.20
2023-03-03T10:49:00,thc,4.24
2023-03-03T10:50:00,thc,3.95
2023-03-03T10:51:00,thc,3.92
2023-03-03T10:52:00,thc,3.92
2023-03-03T10:53:00,thc,3.89
2023-03-03T10:54:00,thc,4.12
2023-03-03T10:55:00,thc,8.38
2023-03-03T10:56:00,thc,8.23
2023-03-03T10:57:00,thc,8.20
2023-03-03T10:58:00,thc,8.19
2023-03-03T10:59:00,thc,8.15
2023-03-03T11:00:00,thc,8.10
2023-03-03T11:01:00,thc,8.12
2023-03-03T11:02:00,thc,8.38
2023-03-03T11:03:00,thc,8.40
2023-03-03T11:04:00,thc,8.45
2023-03-03T11:05:00,thc,8.76
2023-03-03T11:06:00,thc,8.79
2023-03-03T11:07:00,thc,9.32
2023-03-03T11:08:00,thc,9.35
2023-03-03T11:09:00,thc,9.36
2023-03-03T11:10:00,thc,9.35
2023-03-03T11:11:00,thc,9.44
2023-03-03T11:12:00,thc,9.21
2023-03-03T11:13:00,thc,9.18
2023-03-03T11:14:00,thc,8.30
2023-03-03T11:15:00,thc,8.28
2023-03-03T11:16:00,thc,8.25
2023-03-03T11:17:00,thc,8.13
2023-03-03T11:18:00,thc,9.68
2023-03-03T11:19:00,thc,11.56
2023-03-03T11:20:00,thc,8.17
2023-03-03T11:21:00,thc,8.19
2023-03-03T11:22:00,thc,9.99
2023-03-03T11:23:00,thc,10.00
2023-03-03T11:24:00,thc,10.05
2023-03-03T11:25:00,thc,9.40
2023-03-03T11:26:00,thc,9.26
2023-03-03T11:27:00,thc,9.34
2023-03-03T11:28:00,thc,9.27
2023-03-03T11:29:00,thc,5.26
2023-03-03T11:30:00,thc,8.04
2023-03-03T11:31:00,thc,11.41
2023-03-03T11:32:00,thc,9.18
2023-03-03T11:33:00,thc,11.08
2023-03-03T11:34:00,thc,6.93
2023-03-03T11:35:00,thc,6.85
2023-03-03T11:36:00,thc,10.45
2023-03-03T11:37:00,thc,8.49
2023-03-03T11:38:00,thc,8.27
2023-03-03T11:39:00,thc,4.26
2023-03-03T11:40:00,thc,4.40
2023-03-03T11:41:00,thc,10.04
2023-03-03T11:42:00,thc,10.12
2023-03-03T11:43:00,thc,4.16
2023-03-03T11:44:00,thc,4.13
2023-03-03T11:45:00,thc,5.34
2023-03-03T11:46:00,thc,9.46
2023-03-03T11:47:00,thc,9.18
2023-03-03T11:48:00,thc,5.28
2023-03-03T11:49:00,thc,5.31
2023-03-03T11:50:00,thc,10.46
2023-03-03T11:51:00,thc,10.60
2023-03-03T11:52:00,thc,5.18
2023-03-03T11:53:00,thc,5.31
2023-03-03T11:54:00,thc,5.36
2023-03-03T11:55:00,thc,6.13
2023-03-03T11:56:00,thc,6.10
2023-03-03T11:57:00,thc,5.94
2023-03-03T11:58:00,thc,6.00
2023-03-03T11:59:00,thc,6.05
2023-03-03T12:00:00,thc,5.68
2023-03-03T12:01:00,thc,4.86
2023-03-03T12:02:00,thc,4.79
2023-03-03T12:03:00,thc,3.75
2023-03-03T12:04:00,thc,4.86
2023-03-03T12:05:00,thc,5.00
2023-03-03T12:06:00,thc,5.16
2023-03-03T12:07:00,thc,4.97
2023-03-03T12:08:00,thc,4.91
2023-03-03T12:09:00,thc,5.01
2023-03-03T12:10:00,thc,4.00
2023-03-03T12:11:00,thc,3.96
2023-03-03T12:12:00,thc,5.27
2023-03-03T12:13:00,thc,5.11
2023-03-03T12:14:00,thc,5.25
2023-03-03T12:15:00,thc,5.19
2023-03-03T12:16:00,thc,5.15
2023-03-03T12:17:00,thc,5.42
2023-03-03T12:18:00,thc,5.61
2023-03-03T12:19:00,thc,5.48
2023-03-03T12:20:00,thc,5.48
2023-03-03T12:21:00,thc,6.55
2023-03-03T12:22:00,thc,6.54
2023-03-03T12:23:00,thc,6.15
2023-03-03T12:24:00,thc,6.12
2023-03-03T12:25:00,thc,6.05
2023-03-03T12:26:00,thc,6.28
2023-03-03T12:27:00,thc,6.47
2023-03-03T12:28:00,thc,6.36
2023-03-03T12:29:00,thc,6.39
2023-03-03T12:30:00,thc,4.98
2023-03-03T12:31:00,thc,5.04
2023-03-03T12:32:00,thc,5.03
2023-03-03T12:33:00,thc,4.81
2023-03-03T12:34:00,thc,4.83
2023-03-03T12:35:00,thc,4.78
2023-03-03T12:36:00,thc,4.69
2023-03-03T12:37:00,thc,4.05
2023-03-03T12:38:00,thc,3.88
2023-03-03T12:39:00,thc,3.85
2023-03-03T12:40:00,thc,5.23
2023-03-03T12:41:00,thc,5.20
2023-03-03T12:42:00,thc,5.26
2023-03-03T12:43:00,thc,5.23
2023-03-03T12:44:00,thc,3.95
2023-03-03T12:45:00,thc,4.00
2023-03-03T12:46:00,thc,8.69
2023-03-03T12:47:00,thc,8.56
2023-03-03T12:48:00,thc,8.41
2023-03-03T12:49:00,thc,9.41
2023-03-03T12:50:00,thc,9.46
2023-03-03T12:51:00,thc,9.46
2023-03-03T12:52:00,thc,10.83
2023-03-03T12:53:00,thc,10.81
2023-03-03T12:54:00,thc,11.81
2023-03-03T12:55:00,thc,11.88
2023-03-03T12:56:00,thc,10.76
2023-03-03T12:57:00,thc,9.39
2023-03-03T12:58:00,thc,5.43
2023-03-03T12:59:00,thc,5.86
2023-03-03T13:00:00,thc,9.45
2023-03-03T13:01:00,thc,8.54
2023-03-03T13:02:00,thc,4.42
2023-03-03T13:03:00,thc,4.41
2023-03-03T13:04:00,thc,9.85
2023-03-03T13:05:00,thc,5.58
2023-03-03T13:06:00,thc,5.63
2023-03-03T13:07:00,thc,8.18
2023-03-03T13:08:00,thc,8.58
2023-03-03T13:09:00,thc,4.54
2023-03-03T13:10:00,thc,8.70
2023-03-03T13:11:00,thc,8.74
2023-03-03T13:12:00,thc,4.83
2023-03-03T13:13:00,thc,6.11
2023-03-03T13:14:00,thc,9.70
2023-03-03T13:15:00,thc,11.15
2023-03-03T13:16:00,thc,7.89
2023-03-03T13:17:00,thc,11.05
2023-03-03T13:18:00,thc,10.80
2023-03-03T13:19:00,thc,5.88
2023-03-03T13:20:00,thc,5.85
2023-03-03T13:21:00,thc,10.07
2023-03-03T13:22:00,thc,9.95
2023-03-03T13:23:00,thc,6.45
2023-03-03T13:24:00,thc,6.67
2023-03-03T13:25:00,thc,11.02
2023-03-03T13:26:00,thc,7.04
2023-03-03T13:27:00,thc,5.94
2023-03-03T13:28:00,thc,9.84
2023-03-03T13:29:00,thc,9.99
2023-03-03T13:30:00,thc,6.91
2023-03-03T13:31:00,thc,4.97
2023-03-03T13:32:00,thc,8.90
2023-03-03T13:33:00,thc,9.81
2023-03-03T13:34:00,thc,7.27
2023-03-03T13:35:00,thc,10.89
2023-03-03T13:36:00,thc,9.60
2023-03-03T13:37:00,thc,6.83
2023-03-03T13:38:00,thc,6.73
2023-03-03T13:39:00,thc,10.62
2023-03-03T13:40:00,thc,10.73
2023-03-03T13:41:00,thc,6.49
2023-03-03T13:42:00,thc,7.87
2023-03-03T13:43:00,thc,7.94